Regional Weather Roundup
Issued by NWS

Home | Current Version | Previous Version | Text Only | Print | Product List | Glossary Off
Versions: 1 2 3 4 5 6 7 8 9 10 11 12 13 14 15 16 17 18 19 20 21 22 23 24 25 26 27 28 29 30 31 32 33 34 35 36 37 38 39 40 41 42 43 44 45 46 47 48 49 50

000
ASUS43 KLMK 041510
RWRKY
KENTUCKY REGIONAL WEATHER ROUNDUP
NATIONAL WEATHER SERVICE LOUISVILLE KY
1000 AM EST WED MAR 04 2015

NOTE "FAIR" INDICATES FEW OR NO CLOUDS BELOW 12,000 FEET
WITH NO SIGNIFICANT WEATHER AND/OR OBSTRUCTIONS TO VISIBILITY.

KYZ001>023-026-027-061>063-070>075-041600-
WESTERN AND SOUTH CENTRAL KENTUCKY

CITY           SKY/WX    TMP DP  RH WIND       PRES   REMARKS
PADUCAH        RAIN      35  33  92 N17       30.05R FOG     WCI  25
HENDERSON      CLOUDY    36  30  80 N9        30.04R WCI  29
OWENSBORO      RAIN      36  34  92 N10       30.02R FOG     WCI  28
HOPKINSVILLE   MIX PCPN  43  42  95 N16       29.96S
BOWLING GREEN  LGT RAIN  45  42  89 N8        29.96S
GLASGOW        LGT RAIN  45  45 100 N10       29.94R
$$

KYZ024-025-028>034-038-045-046-053-041600-
NORTH CENTRAL KENTUCKY

CITY           SKY/WX    TMP DP  RH WIND       PRES   REMARKS
LOUISVILLE/SDF LGT RAIN  39  37  92 N10       29.99R FOG     WCI  32
LOUISVILLE/LOU LGT RAIN  38  36  92 N8        29.99R FOG     WCI  32
FORT KNOX      LGT RAIN  40  39  94 NW8       29.96R WCI  35
$$

KYZ035>037-039>044-047>052-055>060-089>105-041600-
NORTHEAST KENTUCKY

CITY           SKY/WX    TMP DP  RH WIND       PRES   REMARKS
LEXINGTON      LGT RAIN  41  39  93 N10       29.96R FOG
COVINGTON      CLOUDY    35  33  92 N8        29.97F FOG     WCI  29
FRANKFORT      LGT RAIN  40  38  93 N7        29.96R
$$

KYZ054-064>069-076>088-106>120-041600-
SOUTHEAST KENTUCKY

CITY           SKY/WX    TMP DP  RH WIND       PRES   REMARKS
JACKSON        RAIN      49  47  93 SW3       29.93F VSB 1/2
LONDON         RAIN      51  48  89 VRB3      29.94S FOG
SOMERSET       HVY RAIN  48  48 100 CALM      29.95S
MIDDLESBORO    DRIZZLE   50  50 100 CALM      29.94F
MONTICELLO     FOG       51  51 100 CALM      29.96S VSB 3/4
$$




USA.gov is the U.S. government's official web portal to all federal, state and local government web resources and services.